Weather History for KMCB - October, 2013

Change the Weather History Date:

Thursday, October 3, 2013

  Actual Average Record
Temperature  
Mean Temperature 79 °F -  
Max Temperature 88 °F 83 °F 93 °F (1976)
Min Temperature 71 °F 56 °F 42 °F (1984)
Cooling Degree Days 14    
Growing Degree Days 29 (Base 50)    
Moisture  
Dew Point 71 °F    
Average Humidity 86    
Maximum Humidity 100    
Minimum Humidity 55    
Precipitation  
Precipitation 0.00 in - - ()
Sea Level Pressure  
Sea Level Pressure 30.00 in    
Wind  
Wind Speed 2 mph (SE)    
Max Wind Speed 8 mph    
Max Gust Speed 16 mph    
Visibility 6 miles    
Events Fog    
Averages and records for this station are not official NWS values.
T = Trace of Precipitation, MM = Missing Value Source: NWS Daily Summary

Daily Weather History Graph

Daily Weather History Graph

Search for Another Location

Airport or City:

Trip Planner

Search our weather history database for the weather conditions in past years. The results will help you decide how hot, cold, wet, or windy it might be!

Date:

Astronomy

Oct. 03, 2013 Rise Set
Actual Time 6:56 AM CDT 6:44 PM CDT
Civil Twilight 6:32 AM CDT 7:08 PM CDT
Nautical Twilight 6:04 AM CDT 7:36 PM CDT
Astronomical Twilight 5:36 AM CDT 8:04 PM CDT
Moon 5:34 AM CDT (10/3) 5:51 PM CDT (10/3)
Length of Visible Light 12h 35m
Length of Day
11h 47m
Waning Crescent, 2% of the Moon is Illuminated
Oct 3
Waning Crescent
Oct 4
New
Oct 11
First Quarter
Oct 18
Full
Oct 26
Last Quarter

Hourly Weather History & Observations

Time (CDT) Temp. Heat Index Dew Point Humidity Pressure Visibility Wind Dir Wind Speed Gust Speed Precip Events Conditions
12:53 AM 72.0 °F - 70.0 °F 93% 30.01 in 8.0 mi Calm Calm - N/A   Clear
1:53 AM 71.1 °F - 70.0 °F 96% 30.00 in 4.0 mi Calm Calm - N/A   Partly Cloudy
2:07 AM 71.6 °F - 69.8 °F 94% 30.01 in 5.0 mi Calm Calm - N/A   Scattered Clouds
2:21 AM 71.6 °F - 69.8 °F 94% 30.00 in 5.0 mi Calm Calm - N/A   Mostly Cloudy
2:29 AM 71.6 °F - 69.8 °F 94% 30.00 in 4.0 mi Calm Calm - N/A   Mostly Cloudy
2:53 AM 71.1 °F - 70.0 °F 96% 29.99 in 5.0 mi Calm Calm - N/A   Overcast
3:28 AM 71.6 °F - 69.8 °F 94% 29.99 in 6.0 mi Calm Calm - N/A   Overcast
3:53 AM 72.0 °F - 70.0 °F 93% 29.97 in 6.0 mi Calm Calm - N/A   Overcast
4:10 AM 71.6 °F - 69.8 °F 94% 29.99 in 5.0 mi Calm Calm - N/A   Overcast
4:45 AM 71.6 °F - 71.6 °F 100% 29.98 in 2.0 mi Calm Calm - N/A   Overcast
4:53 AM 72.0 °F - 71.1 °F 97% 29.97 in 1.8 mi Calm Calm - N/A   Overcast
5:53 AM 72.0 °F - 71.1 °F 97% 29.98 in 0.8 mi East 3.5 mph - N/A   Mist
6:43 AM 71.6 °F - 71.6 °F 100% 30.01 in 1.0 mi Calm Calm - N/A   Mist
6:53 AM 72.0 °F - 71.1 °F 97% 29.99 in 0.8 mi Calm Calm - N/A   Mist
7:27 AM 71.6 °F - 71.6 °F 100% 30.01 in 0.2 mi Calm Calm - N/A Fog Fog
7:37 AM 71.6 °F - 71.6 °F 100% 30.02 in 0.5 mi Calm Calm - N/A Fog Fog
7:53 AM 72.0 °F - 72.0 °F 100% 30.01 in 0.5 mi Calm Calm - N/A Fog Fog
8:18 AM 73.4 °F - 71.6 °F 94% 30.02 in 1.0 mi Calm Calm - N/A   Overcast
8:53 AM 73.0 °F - 72.0 °F 96% 30.02 in 1.2 mi Calm Calm - N/A   Overcast
9:12 AM 73.4 °F - 73.4 °F 100% 30.04 in 3.0 mi SE 5.8 mph - N/A   Overcast
9:51 AM 75.2 °F - 73.4 °F 94% 30.06 in 5.0 mi Calm Calm - N/A   Overcast
9:53 AM 75.0 °F - 73.0 °F 94% 30.04 in 6.0 mi SSE 4.6 mph - N/A   Overcast
10:25 AM 77.0 °F - 73.4 °F 89% 30.06 in 10.0 mi SSE 5.8 mph - N/A   Overcast
10:53 AM 78.1 °F - 73.0 °F 84% 30.05 in 10.0 mi SSE 5.8 mph - N/A   Overcast
11:05 AM 78.8 °F - 73.4 °F 83% 30.06 in 10.0 mi SSE 6.9 mph - N/A   Mostly Cloudy
11:24 AM 80.6 °F 85.4 °F 73.4 °F 79% 30.06 in 10.0 mi SE 6.9 mph - N/A   Mostly Cloudy
11:53 AM 82.0 °F 86.3 °F 71.1 °F 69% 30.03 in 10.0 mi SSE 8.1 mph - N/A   Mostly Cloudy
12:02 PM 82.4 °F 87.2 °F 71.6 °F 70% 30.04 in 10.0 mi SE 5.8 mph - N/A   Scattered Clouds
12:53 PM 84.9 °F 90.1 °F 71.1 °F 63% 30.01 in 10.0 mi South 6.9 mph - N/A   Scattered Clouds
1:53 PM 84.9 °F 89.4 °F 70.0 °F 61% 29.98 in 10.0 mi SE 8.1 mph - N/A   Scattered Clouds
2:53 PM 84.9 °F 90.1 °F 71.1 °F 63% 29.96 in 10.0 mi ESE 5.8 mph - N/A   Mostly Cloudy
3:53 PM 86.0 °F 89.4 °F 68.0 °F 55% 29.95 in 10.0 mi SSE 4.6 mph - N/A   Partly Cloudy
4:53 PM 87.1 °F 91.3 °F 69.1 °F 55% 29.94 in 10.0 mi SSE 8.1 mph - N/A   Clear
5:53 PM 84.0 °F 88.4 °F 70.0 °F 63% 29.94 in 10.0 mi Variable 3.5 mph - N/A   Scattered Clouds
6:53 PM 81.0 °F 84.9 °F 71.1 °F 72% 29.96 in 10.0 mi Calm Calm - N/A   Mostly Cloudy
7:53 PM 79.0 °F - 72.0 °F 79% 29.97 in 10.0 mi Calm Calm - N/A   Overcast
8:53 PM 77.0 °F - 71.1 °F 82% 29.99 in 10.0 mi SSE 8.1 mph 16.1 mph N/A   Clear
9:53 PM 75.0 °F - 71.1 °F 87% 30.00 in 10.0 mi SSE 6.9 mph - N/A   Clear
11:50 PM 73.4 °F - 71.6 °F 94% 30.01 in 10.0 mi Calm Calm - N/A   Overcast
11:53 PM 73.9 °F - 71.1 °F 91% 30.00 in 10.0 mi Calm Calm - N/A   Overcast